| time (UTC) | temp C | wind direction | speed KPH | gust KPH | rain 1hr cm | rain 24hr cm | rain mn cm | humidity % | barometer mb |
| 20260906165543 | 15 | 53 | 0.0 | 4.8 | 0.00 | 0.00 | 0.00 | 57 | 1016.5 |
| 20260906165114 | 14 | 38 | 0.0 | 6.4 | 0.00 | 0.00 | 0.00 | 56 | 1016.6 |
| 20260906164634 | 13 | 161 | 1.6 | 6.4 | 0.00 | 0.00 | 0.00 | 59 | 1016.6 |
| 20260906164020 | 13 | 167 | 0.0 | 4.8 | 0.00 | 0.00 | 0.00 | 57 | 1016.6 |
| 20260906163517 | 13 | 163 | 1.6 | 4.8 | 0.00 | 0.00 | 0.00 | 58 | 1016.6 |
| 20260906163109 | 13 | 175 | 0.0 | 4.8 | 0.00 | 0.00 | 0.00 | 58 | 1016.7 |
| 20260906162538 | 12 | 155 | 1.6 | 4.8 | 0.00 | 0.00 | 0.00 | 61 | 1016.8 |
| 20260906162021 | 12 | 302 | 1.6 | 4.8 | 0.00 | 0.00 | 0.00 | 60 | 1016.7 |
| 20260906161635 | 12 | 238 | 0.0 | 4.8 | 0.00 | 0.00 | 0.00 | 62 | 1016.8 |
| 20260906161033 | 12 | 78 | 1.6 | 4.8 | 0.00 | 0.00 | 0.00 | 62 | 1017.0 |
| 20260906160517 | 11 | 330 | 0.0 | 0.0 | 0.00 | 0.00 | 0.00 | 64 | 1017.0 |
| 20260906155528 | 11 | 304 | 0.0 | 4.8 | 0.00 | 0.00 | 0.00 | 66 | 1017.0 |
| 20260906155041 | 11 | 321 | 0.0 | 4.8 | 0.00 | 0.00 | 0.00 | 68 | 1017.1 |
| 20260906154605 | 11 | 291 | 0.0 | 4.8 | 0.00 | 0.00 | 0.00 | 68 | 1017.1 |
| 20260906154018 | 10 | 306 | 0.0 | 4.8 | 0.00 | 0.00 | 0.00 | 69 | 1017.2 |
| 20260906153519 | 10 | 307 | 1.6 | 4.8 | 0.00 | 0.00 | 0.00 | 70 | 1017.1 |
| 20260906153131 | 9 | 217 | 0.0 | 1.6 | 0.00 | 0.00 | 0.00 | 74 | 1017.4 |
| 20260906152545 | 9 | 215 | 0.0 | 3.2 | 0.00 | 0.00 | 0.00 | 73 | 1017.4 |
| 20260906152028 | 8 | 208 | 1.6 | 3.2 | 0.00 | 0.00 | 0.00 | 75 | 1017.4 |
| 20260906151608 | 8 | 261 | 0.0 | 0.0 | 0.00 | 0.00 | 0.00 | 77 | 1017.4 |
| 20260906151038 | 8 | 250 | 0.0 | 3.2 | 0.00 | 0.00 | 0.00 | 78 | 1017.6 |
| 20260906150521 | 8 | 252 | 0.0 | 3.2 | 0.00 | 0.00 | 0.00 | 77 | 1017.8 |
| 20260906150059 | 8 | 263 | 0.0 | 0.0 | 0.00 | 0.00 | 0.00 | 78 | 1017.9 |
| 20260906145525 | 7 | 232 | 0.0 | 0.0 | 0.00 | 0.00 | 0.00 | 79 | 1017.9 |
| 20260906145032 | 7 | 236 | 0.0 | 0.0 | 0.00 | 0.00 | 0.00 | 80 | 1017.9 |
| 20260906144604 | 7 | 229 | 0.0 | 1.6 | 0.00 | 0.00 | 0.00 | 82 | 1017.8 |
| 20260906144027 | 7 | 229 | 0.0 | 1.6 | 0.00 | 0.00 | 0.00 | 82 | 1017.8 |
| 20260906143538 | 7 | 229 | 0.0 | 4.8 | 0.00 | 0.00 | 0.00 | 81 | 1017.9 |
| 20260906143040 | 7 | 223 | 0.0 | 4.8 | 0.00 | 0.00 | 0.00 | 83 | 1018.0 |
| 20260906142519 | 6 | 237 | 1.6 | 4.8 | 0.00 | 0.00 | 0.00 | 84 | 1017.8 |
| 20260906142035 | 6 | 237 | 1.6 | 4.8 | 0.00 | 0.00 | 0.00 | 85 | 1018.0 |
| 20260906141625 | 6 | 236 | 0.0 | 6.4 | 0.00 | 0.00 | 0.00 | 85 | 1018.0 |
| 20260906141023 | 6 | 246 | 1.6 | 6.4 | 0.00 | 0.00 | 0.00 | 86 | 1017.9 |
| 20260906140524 | 6 | 252 | 0.0 | 6.4 | 0.00 | 0.00 | 0.00 | 86 | 1017.9 |
| 20260906140117 | 6 | 248 | 1.6 | 4.8 | 0.00 | 0.00 | 0.00 | 86 | 1017.9 |
| 20260906135542 | 6 | 244 | 3.2 | 4.8 | 0.00 | 0.00 | 0.00 | 86 | 1017.9 |
| 20260906135027 | 6 | 277 | 1.6 | 6.4 | 0.00 | 0.00 | 0.00 | 85 | 1017.9 |
| 20260906134602 | 6 | 250 | 1.6 | 4.8 | 0.00 | 0.00 | 0.00 | 85 | 1018.0 |
| 20260906134021 | 6 | 228 | 3.2 | 4.8 | 0.00 | 0.00 | 0.00 | 85 | 1018.0 |
| 20260906133537 | 6 | 229 | 3.2 | 4.8 | 0.00 | 0.00 | 0.00 | 86 | 1018.1 |
| 20260906133056 | 6 | 242 | 1.6 | 4.8 | 0.00 | 0.00 | 0.00 | 86 | 1018.2 |
| 20260906132532 | 6 | 244 | 1.6 | 4.8 | 0.00 | 0.00 | 0.00 | 87 | 1018.2 |
| 20260906132031 | 6 | 254 | 0.0 | 0.0 | 0.00 | 0.00 | 0.00 | 86 | 1018.3 |
| 20260906131621 | 6 | 259 | 0.0 | 0.0 | 0.00 | 0.00 | 0.00 | 86 | 1018.2 |
| 20260906131039 | 6 | 260 | 0.0 | 3.2 | 0.00 | 0.00 | 0.00 | 86 | 1018.2 |
| 20260906130535 | 6 | 260 | 0.0 | 4.8 | 0.00 | 0.00 | 0.00 | 86 | 1018.2 |
| 20260906130126 | 6 | 257 | 0.0 | 6.4 | 0.00 | 0.00 | 0.00 | 86 | 1018.3 |
| 20260906125530 | 6 | 248 | 0.0 | 6.4 | 0.00 | 0.00 | 0.00 | 85 | 1018.3 |
| 20260906125018 | 6 | 250 | 1.6 | 4.8 | 0.00 | 0.00 | 0.00 | 84 | 1018.3 |
| 20260906124618 | 6 | 229 | 3.2 | 4.8 | 0.00 | 0.00 | 0.00 | 85 | 1018.3 |
| 20260906124033 | 6 | 245 | 1.6 | 4.8 | 0.00 | 0.00 | 0.00 | 85 | 1018.3 |
| 20260906123525 | 6 | 245 | 1.6 | 4.8 | 0.00 | 0.00 | 0.00 | 84 | 1018.3 |
| 20260906123056 | 6 | 248 | 1.6 | 6.4 | 0.00 | 0.00 | 0.00 | 84 | 1018.4 |
| 20260906122519 | 6 | 236 | 3.2 | 6.4 | 0.00 | 0.00 | 0.00 | 84 | 1018.4 |
| 20260906122018 | 6 | 255 | 3.2 | 4.8 | 0.00 | 0.00 | 0.00 | 85 | 1018.4 |
| 20260906121606 | 6 | 250 | 1.6 | 4.8 | 0.00 | 0.00 | 0.00 | 84 | 1018.5 |
| 20260906121043 | 6 | 249 | 1.6 | 4.8 | 0.00 | 0.00 | 0.00 | 84 | 1018.6 |
| 20260906120528 | 6 | 242 | 1.6 | 4.8 | 0.00 | 0.00 | 0.00 | 84 | 1018.5 |
| 20260906120128 | 6 | 228 | 1.6 | 4.8 | 0.00 | 0.00 | 0.00 | 84 | 1018.5 |
| 20260906115518 | 6 | 228 | 1.6 | 4.8 | 0.00 | 0.00 | 0.00 | 84 | 1018.5 |
| 20260906115028 | 6 | 227 | 3.2 | 4.8 | 0.00 | 0.00 | 0.00 | 84 | 1018.5 |
| 20260906114630 | 6 | 238 | 3.2 | 4.8 | 0.00 | 0.00 | 0.00 | 84 | 1018.4 |
| 20260906114032 | 6 | 244 | 1.6 | 4.8 | 0.00 | 0.00 | 0.00 | 84 | 1018.4 |
| 20260906113528 | 6 | 229 | 3.2 | 6.4 | 0.00 | 0.00 | 0.00 | 84 | 1018.4 |
| 20260906113129 | 6 | 246 | 1.6 | 4.8 | 0.00 | 0.00 | 0.00 | 84 | 1018.5 |
| 20260906112539 | 6 | 241 | 3.2 | 4.8 | 0.00 | 0.00 | 0.00 | 84 | 1018.4 |
| 20260906112034 | 6 | 237 | 3.2 | 4.8 | 0.00 | 0.00 | 0.00 | 84 | 1018.5 |
| 20260906111618 | 6 | 248 | 1.6 | 4.8 | 0.00 | 0.00 | 0.00 | 84 | 1018.5 |
| 20260906111020 | 6 | 248 | 1.6 | 4.8 | 0.00 | 0.00 | 0.00 | 83 | 1018.5 |
| 20260906110531 | 6 | 232 | 3.2 | 4.8 | 0.00 | 0.00 | 0.00 | 84 | 1018.5 |
| 20260906110125 | 6 | 240 | 3.2 | 4.8 | 0.00 | 0.00 | 0.00 | 84 | 1018.5 |
| 20260906105543 | 6 | 252 | 1.6 | 3.2 | 0.00 | 0.00 | 0.00 | 84 | 1018.6 |
| 20260906105027 | 6 | 252 | 0.0 | 4.8 | 0.00 | 0.00 | 0.00 | 83 | 1018.7 |
| 20260906104600 | 7 | 249 | 1.6 | 4.8 | 0.00 | 0.00 | 0.00 | 83 | 1018.7 |
| 20260906104021 | 7 | 244 | 3.2 | 4.8 | 0.00 | 0.00 | 0.00 | 83 | 1018.7 |
| 20260906103541 | 7 | 244 | 3.2 | 4.8 | 0.00 | 0.00 | 0.00 | 83 | 1018.8 |
| 20260906103045 | 7 | 231 | 3.2 | 4.8 | 0.00 | 0.00 | 0.00 | 84 | 1018.7 |
| 20260906102538 | 7 | 211 | 3.2 | 4.8 | 0.00 | 0.00 | 0.00 | 84 | 1018.8 |
| 20260906102041 | 7 | 243 | 3.2 | 4.8 | 0.00 | 0.00 | 0.00 | 83 | 1018.8 |
| 20260906101629 | 7 | 246 | 3.2 | 4.8 | 0.00 | 0.00 | 0.00 | 83 | 1018.8 |
| 20260906101032 | 7 | 246 | 1.6 | 4.8 | 0.00 | 0.00 | 0.00 | 82 | 1018.9 |
| 20260906100540 | 7 | 244 | 1.6 | 4.8 | 0.00 | 0.00 | 0.00 | 83 | 1018.8 |
| 20260906100131 | 7 | 250 | 1.6 | 6.4 | 0.00 | 0.00 | 0.00 | 83 | 1018.8 |
| 20260906095538 | 7 | 248 | 3.2 | 4.8 | 0.00 | 0.00 | 0.00 | 82 | 1018.8 |
| 20260906095023 | 7 | 250 | 1.6 | 4.8 | 0.00 | 0.00 | 0.00 | 82 | 1018.8 |
| 20260906094559 | 7 | 247 | 1.6 | 4.8 | 0.00 | 0.00 | 0.00 | 82 | 1018.9 |
| 20260906094045 | 7 | 228 | 1.6 | 4.8 | 0.00 | 0.00 | 0.00 | 82 | 1018.9 |
| 20260906093533 | 7 | 247 | 1.6 | 6.4 | 0.00 | 0.00 | 0.00 | 82 | 1018.9 |
| 20260906093124 | 7 | 227 | 3.2 | 6.4 | 0.00 | 0.00 | 0.00 | 82 | 1018.9 |
| 20260906092524 | 7 | 238 | 3.2 | 4.8 | 0.00 | 0.00 | 0.00 | 82 | 1018.9 |
| 20260906092018 | 7 | 247 | 3.2 | 4.8 | 0.00 | 0.00 | 0.00 | 81 | 1019.0 |
| 20260906091624 | 7 | 232 | 3.2 | 4.8 | 0.00 | 0.00 | 0.00 | 82 | 1018.9 |
| 20260906091019 | 7 | 241 | 3.2 | 4.8 | 0.00 | 0.00 | 0.00 | 81 | 1018.9 |
| 20260906090527 | 7 | 247 | 1.6 | 4.8 | 0.00 | 0.00 | 0.00 | 82 | 1019.1 |
| 20260906090126 | 7 | 248 | 1.6 | 4.8 | 0.00 | 0.00 | 0.00 | 82 | 1019.1 |
| 20260906085526 | 7 | 261 | 0.0 | 6.4 | 0.00 | 0.00 | 0.00 | 82 | 1019.2 |
| 20260906085023 | 7 | 246 | 1.6 | 6.4 | 0.00 | 0.00 | 0.00 | 81 | 1019.1 |
| 20260906084626 | 7 | 236 | 3.2 | 6.4 | 0.00 | 0.00 | 0.00 | 81 | 1019.2 |
| 20260906084027 | 7 | 283 | 1.6 | 4.8 | 0.00 | 0.00 | 0.00 | 80 | 1019.3 |
| 20260906083537 | 7 | 273 | 1.6 | 3.2 | 0.00 | 0.00 | 0.00 | 81 | 1019.3 |
| 20260906083121 | 8 | 273 | 1.6 | 4.8 | 0.00 | 0.00 | 0.00 | 81 | 1019.3 |
| 20260906082518 | 8 | 253 | 3.2 | 4.8 | 0.00 | 0.00 | 0.00 | 81 | 1019.4 |
| 20260906082036 | 8 | 246 | 3.2 | 4.8 | 0.00 | 0.00 | 0.00 | 80 | 1019.4 |
| 20260906081633 | 8 | 234 | 3.2 | 4.8 | 0.00 | 0.00 | 0.00 | 81 | 1019.4 |
| 20260906081028 | 8 | 263 | 1.6 | 4.8 | 0.00 | 0.00 | 0.00 | 80 | 1019.4 |
| 20260906080527 | 8 | 267 | 1.6 | 4.8 | 0.00 | 0.00 | 0.00 | 80 | 1019.4 |
| 20260906080132 | 8 | 257 | 1.6 | 4.8 | 0.00 | 0.00 | 0.00 | 80 | 1019.4 |
| 20260906075539 | 8 | 249 | 1.6 | 4.8 | 0.00 | 0.00 | 0.00 | 79 | 1019.4 |
| 20260906075024 | 8 | 236 | 3.2 | 6.4 | 0.00 | 0.00 | 0.00 | 79 | 1019.4 |
| 20260906074625 | 8 | 227 | 3.2 | 6.4 | 0.00 | 0.00 | 0.00 | 79 | 1019.4 |
| 20260906074040 | 8 | 246 | 1.6 | 4.8 | 0.00 | 0.00 | 0.00 | 79 | 1019.5 |
| 20260906073538 | 8 | 233 | 3.2 | 6.4 | 0.00 | 0.00 | 0.00 | 79 | 1019.5 |
| 20260906073105 | 8 | 228 | 3.2 | 6.4 | 0.00 | 0.00 | 0.00 | 79 | 1019.4 |
| 20260906072542 | 8 | 252 | 0.0 | 4.8 | 0.00 | 0.00 | 0.00 | 79 | 1019.5 |
| 20260906072025 | 8 | 248 | 1.6 | 4.8 | 0.00 | 0.00 | 0.00 | 79 | 1019.5 |
| 20260906071630 | 8 | 248 | 3.2 | 4.8 | 0.00 | 0.00 | 0.00 | 79 | 1019.4 |
| 20260906071031 | 8 | 232 | 1.6 | 4.8 | 0.00 | 0.00 | 0.00 | 79 | 1019.4 |
| 20260906070530 | 8 | 265 | 1.6 | 4.8 | 0.00 | 0.00 | 0.00 | 78 | 1019.3 |
| 20260906070133 | 8 | 254 | 1.6 | 4.8 | 0.00 | 0.00 | 0.00 | 79 | 1019.5 |
| 20260906065531 | 9 | 242 | 3.2 | 4.8 | 0.00 | 0.00 | 0.00 | 78 | 1019.4 |
| 20260906065021 | 9 | 272 | 0.0 | 0.0 | 0.00 | 0.00 | 0.00 | 76 | 1019.4 |
| 20260906064623 | 9 | 253 | 0.0 | 0.0 | 0.00 | 0.00 | 0.00 | 76 | 1019.4 |
| 20260906064049 | 10 | 252 | 0.0 | 4.8 | 0.00 | 0.00 | 0.00 | 76 | 1019.4 |
| 20260906063535 | 10 | 254 | 3.2 | 4.8 | 0.00 | 0.00 | 0.00 | 74 | 1019.4 |
| 20260906063126 | 10 | 236 | 1.6 | 4.8 | 0.00 | 0.00 | 0.00 | 75 | 1019.4 |
| 20260906062537 | 10 | 266 | 1.6 | 4.8 | 0.00 | 0.00 | 0.00 | 74 | 1019.3 |
| 20260906062019 | 10 | 286 | 1.6 | 6.4 | 0.00 | 0.00 | 0.00 | 75 | 1019.3 |
| 20260906061606 | 10 | 232 | 1.6 | 6.4 | 0.00 | 0.00 | 0.00 | 74 | 1019.3 |
| 20260906061042 | 10 | 244 | 1.6 | 6.4 | 0.00 | 0.00 | 0.00 | 73 | 1019.4 |
| 20260906060520 | 10 | 239 | 3.2 | 6.4 | 0.00 | 0.00 | 0.00 | 73 | 1019.3 |
| 20260906060133 | 10 | 250 | 3.2 | 6.4 | 0.00 | 0.00 | 0.00 | 73 | 1019.4 |
| 20260906055537 | 10 | 259 | 3.2 | 6.4 | 0.00 | 0.00 | 0.00 | 74 | 1019.2 |
| 20260906055043 | 10 | 233 | 3.2 | 6.4 | 0.00 | 0.00 | 0.00 | 74 | 1019.3 |
| 20260906054609 | 10 | 238 | 3.2 | 6.4 | 0.00 | 0.00 | 0.00 | 74 | 1019.4 |
| 20260906054040 | 10 | 248 | 1.6 | 4.8 | 0.00 | 0.00 | 0.00 | 73 | 1019.3 |
| 20260906053539 | 10 | 238 | 0.0 | 4.8 | 0.00 | 0.00 | 0.00 | 73 | 1019.4 |
| 20260906053122 | 10 | 238 | 0.0 | 4.8 | 0.00 | 0.00 | 0.00 | 73 | 1019.4 |
| 20260906052526 | 10 | 238 | 1.6 | 3.2 | 0.00 | 0.00 | 0.00 | 75 | 1019.3 |
| 20260906052043 | 11 | 238 | 0.0 | 3.2 | 0.00 | 0.00 | 0.00 | 73 | 1019.2 |
| 20260906051609 | 11 | 237 | 0.0 | 3.2 | 0.00 | 0.00 | 0.00 | 73 | 1019.2 |
| 20260906051044 | 11 | 237 | 0.0 | 3.2 | 0.00 | 0.00 | 0.00 | 72 | 1019.1 |
| 20260906050531 | 11 | 237 | 0.0 | 0.0 | 0.00 | 0.00 | 0.00 | 72 | 1019.3 |
| 20260906050141 | 11 | 237 | 0.0 | 3.2 | 0.00 | 0.00 | 0.00 | 71 | 1019.3 |
| 20260906045539 | 11 | 237 | 0.0 | 3.2 | 0.00 | 0.00 | 0.00 | 72 | 1019.3 |
| 20260906045025 | 11 | 237 | 0.0 | 4.8 | 0.00 | 0.00 | 0.00 | 70 | 1019.3 |
| 20260906044555 | 12 | 237 | 1.6 | 4.8 | 0.00 | 0.00 | 0.00 | 70 | 1019.3 |
| 20260906044037 | 12 | 232 | 1.6 | 3.2 | 0.00 | 0.00 | 0.00 | 69 | 1019.3 |
| 20260906043532 | 12 | 219 | 0.0 | 3.2 | 0.00 | 0.00 | 0.00 | 68 | 1019.4 |
| 20260906043126 | 12 | 232 | 0.0 | 3.2 | 0.00 | 0.00 | 0.00 | 69 | 1019.4 |
| 20260906042548 | 12 | 78 | 0.0 | 6.4 | 0.00 | 0.00 | 0.00 | 69 | 1019.4 |
| 20260906042028 | 12 | 311 | 0.0 | 6.4 | 0.00 | 0.00 | 0.00 | 69 | 1019.4 |
| 20260906041632 | 12 | 166 | 0.0 | 3.2 | 0.00 | 0.00 | 0.00 | 68 | 1019.4 |
| 20260906041038 | 12 | 228 | 0.0 | 0.0 | 0.00 | 0.00 | 0.00 | 69 | 1019.3 |
| 20260906040537 | 12 | 228 | 0.0 | 1.6 | 0.00 | 0.00 | 0.00 | 69 | 1019.3 |
| 20260906040121 | 12 | 228 | 0.0 | 1.6 | 0.00 | 0.00 | 0.00 | 67 | 1019.3 |
| 20260906035542 | 12 | 215 | 0.0 | 0.0 | 0.00 | 0.00 | 0.00 | 66 | 1019.1 |
| 20260906035019 | 12 | 215 | 0.0 | 0.0 | 0.00 | 0.00 | 0.00 | 65 | 1019.1 |
| 20260906034628 | 12 | 215 | 0.0 | 0.0 | 0.00 | 0.00 | 0.00 | 66 | 1019.0 |
| 20260906034037 | 13 | 215 | 0.0 | 0.0 | 0.00 | 0.00 | 0.00 | 67 | 1019.1 |
| 20260906033545 | 13 | 215 | 0.0 | 0.0 | 0.00 | 0.00 | 0.00 | 64 | 1019.0 |
| 20260906033107 | 13 | 215 | 0.0 | 0.0 | 0.00 | 0.00 | 0.00 | 63 | 1018.9 |
| 20260906032533 | 13 | 215 | 0.0 | 1.6 | 0.00 | 0.00 | 0.00 | 64 | 1018.9 |
| 20260906032042 | 13 | 215 | 0.0 | 1.6 | 0.00 | 0.00 | 0.00 | 62 | 1018.8 |
| 20260906031600 | 13 | 215 | 0.0 | 0.0 | 0.00 | 0.00 | 0.00 | 60 | 1018.8 |
| 20260906031021 | 13 | 215 | 0.0 | 3.2 | 0.00 | 0.00 | 0.00 | 60 | 1018.7 |
| 20260906030546 | 14 | 215 | 0.0 | 4.8 | 0.00 | 0.00 | 0.00 | 60 | 1018.8 |
| 20260906030128 | 14 | 167 | 0.0 | 6.4 | 0.00 | 0.00 | 0.00 | 58 | 1018.7 |
| 20260906025527 | 14 | 175 | 0.0 | 0.0 | 0.00 | 0.00 | 0.00 | 60 | 1018.7 |
| 20260906025031 | 15 | 175 | 0.0 | 8.0 | 0.00 | 0.00 | 0.00 | 58 | 1018.6 |
| 20260906024616 | 15 | 175 | 0.0 | 8.0 | 0.00 | 0.00 | 0.00 | 57 | 1018.5 |
| 20260906024034 | 15 | 161 | 1.6 | 6.4 | 0.00 | 0.00 | 0.00 | 56 | 1018.6 |
| 20260906023538 | 15 | 130 | 1.6 | 6.4 | 0.00 | 0.00 | 0.00 | 55 | 1018.5 |
| 20260906023104 | 15 | 127 | 0.0 | 4.8 | 0.00 | 0.00 | 0.00 | 56 | 1018.4 |
| 20260906022530 | 15 | 142 | 0.0 | 9.7 | 0.00 | 0.00 | 0.00 | 53 | 1018.3 |
| 20260906022044 | 16 | 179 | 0.0 | 8.0 | 0.00 | 0.00 | 0.00 | 52 | 1018.3 |
| 20260906021625 | 16 | 150 | 0.0 | 3.2 | 0.00 | 0.00 | 0.00 | 52 | 1018.3 |
| 20260906021032 | 16 | 134 | 0.0 | 11.3 | 0.00 | 0.00 | 0.00 | 51 | 1018.4 |
| 20260906020524 | 16 | 338 | 1.6 | 11.3 | 0.00 | 0.00 | 0.00 | 49 | 1018.4 |
| 20260906020149 | 17 | 160 | 0.0 | 3.2 | 0.00 | 0.00 | 0.00 | 51 | 1018.4 |
| 20260906015526 | 17 | 194 | 0.0 | 3.2 | 0.00 | 0.00 | 0.00 | 49 | 1018.2 |
| 20260906015018 | 17 | 161 | 0.0 | 3.2 | 0.00 | 0.00 | 0.00 | 46 | 1018.0 |
| 20260906014627 | 17 | 303 | 0.0 | 3.2 | 0.00 | 0.00 | 0.00 | 47 | 1018.0 |
| 20260906014030 | 17 | 179 | 0.0 | 3.2 | 0.00 | 0.00 | 0.00 | 47 | 1017.9 |
| 20260906013525 | 17 | 159 | 0.0 | 3.2 | 0.00 | 0.00 | 0.00 | 49 | 1017.8 |
| 20260906013127 | 17 | 76 | 0.0 | 0.0 | 0.00 | 0.00 | 0.00 | 44 | 1017.8 |
| 20260906012536 | 17 | 76 | 0.0 | 0.0 | 0.00 | 0.00 | 0.00 | 44 | 1017.7 |
| 20260906012024 | 17 | 76 | 0.0 | 0.0 | 0.00 | 0.00 | 0.00 | 43 | 1017.7 |
| 20260906011624 | 17 | 76 | 0.0 | 0.0 | 0.00 | 0.00 | 0.00 | 50 | 1017.7 |
| 20260906011031 | 17 | 75 | 0.0 | 1.6 | 0.00 | 0.00 | 0.00 | 44 | 1017.6 |
| 20260906010544 | 17 | 75 | 0.0 | 3.2 | 0.00 | 0.00 | 0.00 | 46 | 1017.7 |
| 20260906010139 | 17 | 75 | 0.0 | 3.2 | 0.00 | 0.00 | 0.00 | 42 | 1017.6 |
| 20260906005524 | 17 | 306 | 0.0 | 4.8 | 0.00 | 0.00 | 0.00 | 42 | 1017.7 |
| 20260906005033 | 17 | 9 | 0.0 | 4.8 | 0.00 | 0.00 | 0.00 | 44 | 1017.8 |
| 20260906004620 | 17 | 199 | 0.0 | 3.2 | 0.00 | 0.00 | 0.00 | 47 | 1017.7 |
| 20260906004036 | 17 | 234 | 0.0 | 3.2 | 0.00 | 0.00 | 0.00 | 46 | 1017.5 |
| 20260906003544 | 17 | 310 | 0.0 | 4.8 | 0.00 | 0.00 | 0.00 | 44 | 1017.6 |
| 20260906003123 | 17 | 214 | 1.6 | 4.8 | 0.00 | 0.00 | 0.00 | 44 | 1017.7 |
| 20260906002523 | 17 | 323 | 0.0 | 3.2 | 0.00 | 0.00 | 0.00 | 47 | 1017.6 |
| 20260906002021 | 17 | 337 | 0.0 | 3.2 | 0.00 | 0.00 | 0.00 | 43 | 1017.6 |
| 20260906001637 | 17 | 286 | 0.0 | 1.6 | 0.00 | 0.00 | 0.00 | 47 | 1017.5 |
| 20260906001040 | 17 | 286 | 0.0 | 3.2 | 0.00 | 0.00 | 0.00 | 47 | 1017.5 |
| 20260906000526 | 17 | 288 | 0.0 | 8.0 | 0.00 | 0.00 | 0.00 | 44 | 1017.5 |
| 20260906000137 | 17 | 200 | 0.0 | 8.0 | 0.00 | 0.00 | 0.00 | 44 | 1017.5 |
| 20260905235541 | 17 | 65 | 0.0 | 6.4 | 0.00 | 0.00 | 0.00 | 42 | 1017.6 |
| 20260905235028 | 17 | 323 | 3.2 | 8.0 | 0.00 | 0.00 | 0.00 | 41 | 1017.7 |
| 20260905234641 | 18 | 360 | 3.2 | 6.4 | 0.00 | 0.00 | 0.00 | 43 | 1017.6 |
| 20260905234033 | 18 | 337 | 0.0 | 4.8 | 0.00 | 0.00 | 0.00 | 40 | 1017.5 |
| 20260905233544 | 18 | 300 | 1.6 | 6.4 | 0.00 | 0.00 | 0.00 | 39 | 1017.5 |
| 20260905233104 | 18 | 177 | 1.6 | 6.4 | 0.00 | 0.00 | 0.00 | 37 | 1017.5 |
| 20260905232533 | 19 | 296 | 0.0 | 4.8 | 0.00 | 0.00 | 0.00 | 35 | 1017.4 |
| 20260905232030 | 19 | 169 | 0.0 | 4.8 | 0.00 | 0.00 | 0.00 | 36 | 1017.4 |
| 20260905231640 | 19 | 295 | 0.0 | 6.4 | 0.00 | 0.00 | 0.00 | 37 | 1017.5 |
| 20260905231044 | 19 | 180 | 3.2 | 8.0 | 0.00 | 0.00 | 0.00 | 38 | 1017.3 |
| 20260905230548 | 18 | 146 | 3.2 | 11.3 | 0.00 | 0.00 | 0.00 | 40 | 1017.5 |
| 20260905230129 | 18 | 212 | 1.6 | 11.3 | 0.00 | 0.00 | 0.00 | 38 | 1017.5 |
| 20260905225533 | 18 | 205 | 0.0 | 1.6 | 0.00 | 0.00 | 0.00 | 37 | 1017.4 |
| 20260905225033 | 19 | 262 | 0.0 | 3.2 | 0.00 | 0.00 | 0.00 | 38 | 1017.6 |
| 20260905224617 | 19 | 74 | 0.0 | 8.0 | 0.00 | 0.00 | 0.00 | 36 | 1017.7 |
| 20260905224033 | 19 | 85 | 1.6 | 8.0 | 0.00 | 0.00 | 0.00 | 36 | 1017.8 |
| 20260905223525 | 19 | 150 | 3.2 | 6.4 | 0.00 | 0.00 | 0.00 | 37 | 1017.7 |
| 20260905223135 | 19 | 136 | 1.6 | 11.3 | 0.00 | 0.00 | 0.00 | 38 | 1017.8 |
| 20260905222544 | 19 | 196 | 3.2 | 11.3 | 0.00 | 0.00 | 0.00 | 38 | 1017.8 |
| 20260905222047 | 19 | 103 | 1.6 | 11.3 | 0.00 | 0.00 | 0.00 | 39 | 1017.7 |
| 20260905221636 | 19 | 181 | 1.6 | 11.3 | 0.00 | 0.00 | 0.00 | 38 | 1017.8 |
| 20260905221047 | 20 | 190 | 3.2 | 11.3 | 0.00 | 0.00 | 0.00 | 40 | 1017.9 |
| 20260905220531 | 20 | 242 | 1.6 | 14.5 | 0.00 | 0.00 | 0.00 | 38 | 1017.9 |
| 20260905220135 | 20 | 130 | 4.8 | 14.5 | 0.00 | 0.00 | 0.00 | 36 | 1017.8 |
| 20260905215523 | 20 | 127 | 3.2 | 9.7 | 0.00 | 0.00 | 0.00 | 39 | 1017.9 |
| 20260905215030 | 20 | 90 | 3.2 | 11.3 | 0.00 | 0.00 | 0.00 | 39 | 1017.8 |
| 20260905214626 | 20 | 196 | 1.6 | 16.1 | 0.00 | 0.00 | 0.00 | 39 | 1017.7 |
| 20260905214037 | 20 | 200 | 1.6 | 9.7 | 0.00 | 0.00 | 0.00 | 41 | 1017.7 |
| 20260905213532 | 20 | 180 | 3.2 | 9.7 | 0.00 | 0.00 | 0.00 | 41 | 1017.6 |
| 20260905213125 | 19 | 199 | 1.6 | 9.7 | 0.00 | 0.00 | 0.00 | 45 | 1017.5 |
| 20260905212542 | 18 | 161 | 3.2 | 9.7 | 0.00 | 0.00 | 0.00 | 48 | 1017.4 |
| 20260905212051 | 18 | 352 | 1.6 | 11.3 | 0.00 | 0.00 | 0.00 | 47 | 1017.4 |
| 20260905211624 | 18 | 275 | 1.6 | 11.3 | 0.00 | 0.00 | 0.00 | 46 | 1017.5 |
| 20260905211041 | 18 | 161 | 1.6 | 9.7 | 0.00 | 0.00 | 0.00 | 48 | 1017.5 |
| 20260905210546 | 18 | 255 | 0.0 | 14.5 | 0.00 | 0.00 | 0.00 | 45 | 1017.5 |
| 20260905210121 | 18 | 162 | 4.8 | 14.5 | 0.00 | 0.00 | 0.00 | 44 | 1017.5 |
| 20260905205532 | 18 | 292 | 0.0 | 8.0 | 0.00 | 0.00 | 0.00 | 42 | 1017.4 |
| 20260905205024 | 18 | 146 | 1.6 | 11.3 | 0.00 | 0.00 | 0.00 | 42 | 1017.4 |
| 20260905204627 | 18 | 171 | 3.2 | 11.3 | 0.00 | 0.00 | 0.00 | 39 | 1017.4 |
| 20260905204024 | 18 | 343 | 1.6 | 9.7 | 0.00 | 0.00 | 0.00 | 40 | 1017.3 |
| 20260905203525 | 18 | 167 | 1.6 | 8.0 | 0.00 | 0.00 | 0.00 | 42 | 1017.4 |
| 20260905203124 | 18 | 200 | 3.2 | 8.0 | 0.00 | 0.00 | 0.00 | 40 | 1017.3 |
| 20260905202541 | 18 | 30 | 0.0 | 3.2 | 0.00 | 0.00 | 0.00 | 41 | 1017.3 |
| 20260905202033 | 18 | 179 | 0.0 | 3.2 | 0.00 | 0.00 | 0.00 | 40 | 1017.4 |
| 20260905201625 | 18 | 184 | 0.0 | 0.0 | 0.00 | 0.00 | 0.00 | 40 | 1017.3 |
| 20260905201029 | 18 | 96 | 0.0 | 3.2 | 0.00 | 0.00 | 0.00 | 40 | 1017.4 |
| 20260905200528 | 18 | 145 | 0.0 | 6.4 | 0.00 | 0.00 | 0.00 | 39 | 1017.3 |
| 20260905200130 | 18 | 232 | 1.6 | 6.4 | 0.00 | 0.00 | 0.00 | 38 | 1017.3 |
| 20260905195540 | 18 | 186 | 0.0 | 4.8 | 0.00 | 0.00 | 0.00 | 39 | 1017.4 |
| 20260905195040 | 18 | 187 | 1.6 | 4.8 | 0.00 | 0.00 | 0.00 | 40 | 1017.5 |
| 20260905194627 | 18 | 83 | 0.0 | 4.8 | 0.00 | 0.00 | 0.00 | 40 | 1017.4 |
| 20260905194045 | 18 | 196 | 0.0 | 6.4 | 0.00 | 0.00 | 0.00 | 42 | 1017.7 |
| 20260905193519 | 19 | 151 | 1.6 | 3.2 | 0.00 | 0.00 | 0.00 | 40 | 1017.5 |
| 20260905193127 | 19 | 152 | 0.0 | 3.2 | 0.00 | 0.00 | 0.00 | 43 | 1017.5 |
| 20260905192526 | 19 | 127 | 0.0 | 4.8 | 0.00 | 0.00 | 0.00 | 39 | 1017.6 |
| 20260905192025 | 20 | 96 | 1.6 | 6.4 | 0.00 | 0.00 | 0.00 | 40 | 1017.9 |
| 20260905191626 | 20 | 190 | 1.6 | 11.3 | 0.00 | 0.00 | 0.00 | 41 | 1017.8 |
| 20260905191040 | 20 | 30 | 1.6 | 11.3 | 0.00 | 0.00 | 0.00 | 37 | 1017.8 |
| 20260905190532 | 20 | 315 | 3.2 | 9.7 | 0.00 | 0.00 | 0.00 | 39 | 1017.9 |
| 20260905190143 | 20 | 172 | 3.2 | 9.7 | 0.00 | 0.00 | 0.00 | 39 | 1017.9 |
| 20260905185523 | 20 | 350 | 1.6 | 6.4 | 0.00 | 0.00 | 0.00 | 40 | 1017.9 |
| 20260905185028 | 20 | 76 | 1.6 | 6.4 | 0.00 | 0.00 | 0.00 | 43 | 1017.9 |
| 20260905184638 | 20 | 146 | 1.6 | 8.0 | 0.00 | 0.00 | 0.00 | 44 | 1017.9 |
| 20260905184031 | 19 | 94 | 1.6 | 11.3 | 0.00 | 0.00 | 0.00 | 43 | 1018.0 |
| 20260905183542 | 19 | 109 | 1.6 | 11.3 | 0.00 | 0.00 | 0.00 | 47 | 1018.2 |
| 20260905183133 | 19 | 23 | 3.2 | 6.4 | 0.00 | 0.00 | 0.00 | 48 | 1018.2 |
| 20260905182533 | 19 | 351 | 1.6 | 4.8 | 0.00 | 0.00 | 0.00 | 46 | 1018.2 |
| 20260905182023 | 18 | 38 | 1.6 | 4.8 | 0.00 | 0.00 | 0.00 | 48 | 1018.2 |
| 20260905181646 | 18 | 29 | 0.0 | 4.8 | 0.00 | 0.00 | 0.00 | 49 | 1018.4 |
| 20260905181045 | 18 | 53 | 1.6 | 4.8 | 0.00 | 0.00 | 0.00 | 52 | 1018.3 |
| 20260905180536 | 18 | 49 | 0.0 | 3.2 | 0.00 | 0.00 | 0.00 | 51 | 1018.4 |
| 20260905180159 | 17 | 333 | 1.6 | 6.4 | 0.00 | 0.00 | 0.00 | 52 | 1018.4 |
| 20260905175525 | 17 | 360 | 1.6 | 9.7 | 0.00 | 0.00 | 0.00 | 50 | 1018.5 |
| 20260905175041 | 17 | 159 | 1.6 | 9.7 | 0.00 | 0.00 | 0.00 | 54 | 1018.5 |
| 20260905174629 | 17 | 186 | 1.6 | 6.4 | 0.00 | 0.00 | 0.00 | 53 | 1018.6 |
| 20260905174050 | 17 | 51 | 1.6 | 6.4 | 0.00 | 0.00 | 0.00 | 54 | 1018.6 |
| 20260905173524 | 16 | 62 | 1.6 | 6.4 | 0.00 | 0.00 | 0.00 | 58 | 1018.7 |
| 20260905173126 | 16 | 265 | 1.6 | 6.4 | 0.00 | 0.00 | 0.00 | 54 | 1018.8 |
| 20260905172545 | 16 | 60 | 1.6 | 8.0 | 0.00 | 0.00 | 0.00 | 54 | 1018.8 |
| 20260905172031 | 16 | 338 | 3.2 | 8.0 | 0.00 | 0.00 | 0.00 | 53 | 1018.8 |
| 20260905171624 | 16 | 84 | 1.6 | 4.8 | 0.00 | 0.00 | 0.00 | 55 | 1018.9 |
| 20260905171031 | 15 | 319 | 1.6 | 3.2 | 0.00 | 0.00 | 0.00 | 59 | 1018.8 |
| 20260905170525 | 15 | 241 | 0.0 | 3.2 | 0.00 | 0.00 | 0.00 | 58 | 1018.8 |
| 20260905170131 | 14 | 115 | 0.0 | 3.2 | 0.00 | 0.00 | 0.00 | 60 | 1019.0 |